Location: C�an Torras
(41.5052°N, 1.9280°E)
Time: 19:04:41
(UTC+00:00)

Cosmos 2112 Rocket - Pass Details

Date: 20 January 2021
Orbit: 757 x 786 km, 74.1° (Epoch: 02 March)

Event Time Altitude Azimuth Distance (km) Brightness Sun altitude
Rises 18:55:11 0° 343° (NNW) 3,249 7.4 -22.6°
Reaches altitude 10° 18:57:37 10° 347° (NNW) 2,314 6.5 -23.0°
Enters shadow 19:02:18 57° 40° (NE) 897 4.0 -23.9°
